sat.trackr.live / text

‹ back to catalog

STARLINK-5156

NORAD 53973 · 2022-125K

PAYLOAD ACTIVE UNKNOWN

§ Identity

Operator
Country
US
Launch date
2022-10-05
Launch site
AFWTR
Launch vehicle
Mass (kg)
RCS (m²)

Purposes: comms

External: N2YO · Heavens-Above · Gunter

§ Orbital elements

Epoch: 2026-09-20T22:23:10.388832Z

Period
94.01 min
Inclination
53.1587°
Eccentricity
0.0001574
Mean motion
15.31742256 rev/d
Perigee alt
469.5 km
Apogee alt
471.7 km
Semi-major
6,848.8 km
B*
-2.1958e-4
RAAN
59.5186°
Arg perigee
122.6688°
Mean anomaly
237.4466°
Rev number
21,890

§ Raw data

STARLINK-51561 53973U 22125K   26263.93275913 -.00007182  00000+0 -21958-3 0  99942 53973  53.1587  59.5186 0001574 122.6688 237.4466 15.31742256218900

JSON: /api/v1/satellites/53973 · /tle

For live sub-satellite position, see the globe view (requires WebGL).

§ Visibility from observer

Set your observer location to see the next 7 days of passes ≥ 10°. The values pass through the URL so the page stays shareable.

No JS? Fill the form by hand. The geolocation button needs JavaScript.